| time (UTC) | temp F | wind direction | speed knots | gust knots | rain 1hr in | rain 24hr in | rain mn in | humidity % | barometer mb |
| 20260507114000 | 35 | 196 | 2.6 | 4.3 | 0.00 | 0.03 | 0.00 | 91 | 1014.3 |
| 20260507113500 | 36 | 200 | 1.7 | 3.5 | 0.00 | 0.03 | 0.00 | 91 | 1014.4 |
| 20260507113000 | 36 | 257 | 1.7 | 2.6 | 0.00 | 0.03 | 0.00 | 91 | 1014.4 |
| 20260507112500 | 36 | 259 | 0.9 | 3.5 | 0.00 | 0.03 | 0.00 | 91 | 1014.3 |
| 20260507111959 | 36 | 259 | 1.7 | 3.5 | 0.00 | 0.03 | 0.00 | 91 | 1014.5 |
| 20260507111459 | 36 | 259 | 2.6 | 3.5 | 0.00 | 0.03 | 0.00 | 91 | 1014.7 |
| 20260507111000 | 36 | 255 | 2.6 | 3.5 | 0.00 | 0.03 | 0.00 | 90 | 1014.6 |
| 20260507110500 | 36 | 250 | 2.6 | 3.5 | 0.00 | 0.03 | 0.00 | 90 | 1014.5 |
| 20260507110002 | 36 | 248 | 1.7 | 3.5 | 0.00 | 0.03 | 0.00 | 91 | 1014.5 |
| 20260507105500 | 37 | 230 | 3.5 | 4.3 | 0.00 | 0.03 | 0.00 | 90 | 1014.7 |
| 20260507105000 | 37 | 256 | 3.5 | 4.3 | 0.00 | 0.03 | 0.00 | 90 | 1014.8 |
| 20260507104459 | 37 | 256 | 2.6 | 4.3 | 0.00 | 0.03 | 0.00 | 90 | 1014.8 |
| 20260507103959 | 37 | 254 | 2.6 | 4.3 | 0.00 | 0.03 | 0.00 | 90 | 1014.8 |
| 20260507103500 | 37 | 258 | 2.6 | 3.5 | 0.00 | 0.03 | 0.00 | 90 | 1014.9 |
| 20260507102959 | 37 | 252 | 2.6 | 5.2 | 0.00 | 0.03 | 0.00 | 89 | 1014.9 |
| 20260507102459 | 38 | 250 | 2.6 | 6.1 | 0.00 | 0.03 | 0.00 | 89 | 1015.0 |
| 20260507102000 | 38 | 251 | 2.6 | 7.0 | 0.00 | 0.03 | 0.00 | 90 | 1015.0 |
| 20260507101459 | 38 | 258 | 5.2 | 7.0 | 0.00 | 0.03 | 0.00 | 89 | 1015.2 |
| 20260507101000 | 38 | 255 | 4.3 | 7.0 | 0.00 | 0.03 | 0.00 | 89 | 1015.2 |
| 20260507100002 | 39 | 257 | 3.5 | 8.7 | 0.00 | 0.03 | 0.00 | 89 | 1015.2 |
| 20260507095500 | 39 | 265 | 5.2 | 8.7 | 0.00 | 0.03 | 0.00 | 89 | 1015.1 |
| 20260507094459 | 39 | 238 | 5.2 | 8.7 | 0.00 | 0.03 | 0.00 | 90 | 1015.2 |
| 20260507093500 | 38 | 259 | 5.2 | 7.0 | 0.00 | 0.03 | 0.00 | 89 | 1015.3 |
| 20260507093000 | 38 | 252 | 3.5 | 7.8 | 0.00 | 0.03 | 0.00 | 89 | 1015.4 |
| 20260507092459 | 38 | 244 | 2.6 | 7.8 | 0.00 | 0.03 | 0.00 | 90 | 1015.5 |
| 20260507091959 | 38 | 239 | 4.3 | 6.1 | 0.00 | 0.03 | 0.00 | 90 | 1015.5 |
| 20260507091000 | 39 | 234 | 4.3 | 7.0 | 0.00 | 0.03 | 0.00 | 89 | 1015.6 |
| 20260507090002 | 39 | 248 | 2.6 | 7.0 | 0.00 | 0.03 | 0.00 | 89 | 1015.6 |
| 20260507085459 | 39 | 227 | 4.3 | 7.0 | 0.00 | 0.03 | 0.00 | 89 | 1015.6 |
| 20260507085000 | 39 | 232 | 3.5 | 7.8 | 0.00 | 0.03 | 0.00 | 89 | 1015.7 |
| 20260507084500 | 40 | 229 | 3.5 | 7.8 | 0.00 | 0.03 | 0.00 | 89 | 1015.9 |
| 20260507083959 | 40 | 229 | 4.3 | 7.8 | 0.00 | 0.03 | 0.00 | 89 | 1016.1 |
| 20260507083459 | 39 | 221 | 4.3 | 8.7 | 0.00 | 0.03 | 0.00 | 89 | 1016.1 |
| 20260507082959 | 39 | 248 | 3.5 | 8.7 | 0.00 | 0.03 | 0.00 | 89 | 1016.1 |
| 20260507081959 | 39 | 236 | 2.6 | 7.0 | 0.00 | 0.03 | 0.00 | 89 | 1016.3 |
| 20260507081459 | 39 | 265 | 6.1 | 7.8 | 0.00 | 0.03 | 0.00 | 89 | 1016.4 |
| 20260507080500 | 39 | 244 | 2.6 | 6.1 | 0.00 | 0.03 | 0.00 | 89 | 1016.4 |
| 20260507080002 | 40 | 244 | 2.6 | 7.0 | 0.00 | 0.03 | 0.00 | 89 | 1016.5 |
| 20260507075500 | 40 | 250 | 3.5 | 7.0 | 0.00 | 0.03 | 0.00 | 89 | 1016.5 |
| 20260507074459 | 40 | 227 | 3.5 | 7.8 | 0.00 | 0.03 | 0.00 | 88 | 1016.6 |
| 20260507074000 | 40 | 251 | 3.5 | 7.8 | 0.00 | 0.03 | 0.00 | 88 | 1016.7 |
| 20260507073500 | 41 | 234 | 3.5 | 7.8 | 0.00 | 0.03 | 0.00 | 88 | 1016.7 |
| 20260507072959 | 41 | 248 | 3.5 | 7.0 | 0.00 | 0.03 | 0.00 | 88 | 1016.7 |
| 20260507071959 | 41 | 244 | 2.6 | 7.8 | 0.00 | 0.03 | 0.00 | 87 | 1016.8 |
| 20260507071459 | 41 | 249 | 3.5 | 7.8 | 0.00 | 0.03 | 0.00 | 87 | 1016.9 |
| 20260507071000 | 41 | 243 | 5.2 | 6.1 | 0.00 | 0.03 | 0.00 | 87 | 1017.0 |
| 20260507070003 | 42 | 250 | 7.0 | 7.8 | 0.00 | 0.03 | 0.00 | 87 | 1017.2 |
| 20260507065500 | 42 | 256 | 4.3 | 7.8 | 0.00 | 0.04 | 0.00 | 87 | 1017.3 |
| 20260507064500 | 42 | 257 | 4.3 | 9.6 | 0.00 | 0.04 | 0.00 | 87 | 1017.4 |
| 20260507064000 | 43 | 258 | 5.2 | 9.6 | 0.00 | 0.04 | 0.00 | 87 | 1017.4 |
| 20260507063459 | 43 | 252 | 4.3 | 10.4 | 0.00 | 0.04 | 0.00 | 87 | 1017.4 |
| 20260507062500 | 42 | 244 | 7.0 | 7.8 | 0.00 | 0.04 | 0.00 | 87 | 1017.5 |
| 20260507061959 | 42 | 251 | 3.5 | 7.8 | 0.00 | 0.04 | 0.00 | 87 | 1017.5 |
| 20260507061459 | 42 | 257 | 2.6 | 6.1 | 0.00 | 0.04 | 0.00 | 87 | 1017.5 |
| 20260507061000 | 42 | 257 | 3.5 | 6.1 | 0.00 | 0.04 | 0.00 | 86 | 1017.5 |
| 20260507055501 | 43 | 269 | 2.6 | 9.6 | 0.00 | 0.10 | 0.00 | 86 | 1017.7 |
| 20260507055001 | 44 | 255 | 2.6 | 9.6 | 0.00 | 0.10 | 0.00 | 85 | 1017.6 |
| 20260507054500 | 44 | 253 | 7.0 | 9.6 | 0.00 | 0.10 | 0.00 | 85 | 1017.5 |
| 20260507054001 | 44 | 248 | 7.0 | 9.6 | 0.00 | 0.10 | 0.00 | 85 | 1017.5 |
| 20260507053501 | 44 | 250 | 6.1 | 9.6 | 0.00 | 0.10 | 0.00 | 85 | 1017.4 |
| 20260507053000 | 44 | 258 | 8.7 | 11.3 | 0.00 | 0.10 | 0.00 | 85 | 1017.4 |
| 20260507052501 | 44 | 240 | 5.2 | 11.3 | 0.00 | 0.10 | 0.00 | 85 | 1017.5 |
| 20260507052001 | 44 | 252 | 7.8 | 13.0 | 0.00 | 0.10 | 0.00 | 85 | 1017.4 |
| 20260507051000 | 44 | 252 | 7.0 | 12.2 | 0.00 | 0.10 | 0.00 | 85 | 1017.4 |
| 20260507050501 | 44 | 253 | 7.8 | 12.2 | 0.00 | 0.10 | 0.00 | 86 | 1017.5 |
| 20260507050005 | 44 | 252 | 7.8 | 11.3 | 0.00 | 0.10 | 0.00 | 86 | 1017.6 |
| 20260507045501 | 44 | 222 | 6.1 | 9.6 | 0.00 | 0.13 | 0.10 | 86 | 1017.6 |
| 20260507045001 | 44 | 218 | 4.3 | 7.0 | 0.00 | 0.13 | 0.10 | 86 | 1017.7 |
| 20260507044000 | 44 | 246 | 4.3 | 7.8 | 0.00 | 0.13 | 0.10 | 85 | 1018.0 |
| 20260507043001 | 44 | 246 | 4.3 | 7.8 | 0.00 | 0.13 | 0.10 | 85 | 1018.0 |
| 20260507042500 | 44 | 247 | 6.1 | 8.7 | 0.00 | 0.13 | 0.10 | 85 | 1018.1 |
| 20260507041500 | 43 | 247 | 4.3 | 7.0 | 0.00 | 0.13 | 0.10 | 85 | 1018.1 |
| 20260507041001 | 43 | 250 | 2.6 | 6.1 | 0.00 | 0.13 | 0.10 | 86 | 1018.2 |
| 20260507040500 | 43 | 242 | 2.6 | 4.3 | 0.00 | 0.13 | 0.10 | 85 | 1018.2 |
| 20260507040005 | 43 | 243 | 2.6 | 4.3 | 0.00 | 0.13 | 0.10 | 85 | 1018.1 |
| 20260507035500 | 43 | 244 | 2.6 | 4.3 | 0.00 | 0.16 | 0.10 | 84 | 1018.1 |
| 20260507035001 | 44 | 247 | 2.6 | 4.3 | 0.00 | 0.16 | 0.10 | 84 | 1018.2 |
| 20260507034501 | 44 | 255 | 2.6 | 6.1 | 0.00 | 0.16 | 0.10 | 83 | 1018.3 |
| 20260507033501 | 45 | 237 | 2.6 | 6.1 | 0.00 | 0.16 | 0.10 | 83 | 1018.3 |
| 20260507033000 | 45 | 246 | 3.5 | 6.1 | 0.00 | 0.16 | 0.10 | 84 | 1018.2 |
| 20260507032501 | 45 | 246 | 2.6 | 6.1 | 0.00 | 0.16 | 0.10 | 83 | 1018.2 |
| 20260507031501 | 46 | 246 | 2.6 | 6.1 | 0.00 | 0.16 | 0.10 | 82 | 1018.2 |
| 20260507031000 | 46 | 246 | 3.5 | 6.1 | 0.00 | 0.16 | 0.10 | 82 | 1018.2 |
| 20260507030500 | 46 | 253 | 3.5 | 6.1 | 0.00 | 0.16 | 0.10 | 83 | 1018.2 |
| 20260507025500 | 46 | 261 | 5.2 | 7.0 | 0.00 | 0.16 | 0.10 | 83 | 1018.3 |
| 20260507025001 | 46 | 246 | 3.5 | 7.0 | 0.00 | 0.16 | 0.10 | 83 | 1018.3 |
| 20260507024001 | 46 | 248 | 3.5 | 7.0 | 0.00 | 0.16 | 0.10 | 83 | 1018.2 |
| 20260507023501 | 46 | 255 | 3.5 | 4.3 | 0.00 | 0.16 | 0.10 | 82 | 1018.2 |
| 20260507023000 | 45 | 240 | 1.7 | 4.3 | 0.00 | 0.16 | 0.10 | 82 | 1018.1 |
| 20260507022500 | 46 | 237 | 1.7 | 4.3 | 0.00 | 0.16 | 0.10 | 82 | 1018.1 |
| 20260507022001 | 46 | 234 | 3.5 | 5.2 | 0.00 | 0.16 | 0.10 | 81 | 1017.9 |
| 20260507021501 | 46 | 229 | 3.5 | 6.1 | 0.00 | 0.16 | 0.10 | 81 | 1017.9 |
| 20260507021000 | 46 | 225 | 5.2 | 6.1 | 0.00 | 0.16 | 0.10 | 81 | 1017.8 |
| 20260507020501 | 47 | 219 | 4.3 | 5.2 | 0.00 | 0.16 | 0.10 | 80 | 1017.9 |
| 20260507020003 | 47 | 224 | 4.3 | 5.2 | 0.00 | 0.16 | 0.10 | 80 | 1017.9 |
| 20260507015500 | 47 | 227 | 3.5 | 5.2 | 0.00 | 0.16 | 0.10 | 80 | 1017.9 |
| 20260507015000 | 47 | 230 | 3.5 | 5.2 | 0.00 | 0.16 | 0.10 | 79 | 1018.0 |
| 20260507014501 | 48 | 233 | 4.3 | 5.2 | 0.00 | 0.16 | 0.10 | 79 | 1017.8 |
| 20260507014000 | 48 | 225 | 3.5 | 4.3 | 0.00 | 0.16 | 0.10 | 80 | 1017.8 |
| 20260507013500 | 48 | 234 | 2.6 | 3.5 | 0.00 | 0.16 | 0.10 | 80 | 1017.8 |
| 20260507013000 | 49 | 225 | 2.6 | 3.5 | 0.00 | 0.16 | 0.10 | 79 | 1017.8 |
| 20260507012502 | 50 | 236 | 1.7 | 4.3 | 0.00 | 0.16 | 0.10 | 78 | 1017.8 |
| 20260507011500 | 51 | 244 | 2.6 | 4.3 | 0.00 | 0.16 | 0.10 | 76 | 1018.0 |
| 20260507010500 | 51 | 249 | 3.5 | 6.1 | 0.00 | 0.16 | 0.10 | 75 | 1017.9 |
| 20260507010003 | 51 | 255 | 3.5 | 7.0 | 0.00 | 0.16 | 0.10 | 74 | 1017.9 |
| 20260507005500 | 51 | 259 | 3.5 | 7.0 | 0.00 | 0.16 | 0.10 | 74 | 1018.0 |
| 20260507005000 | 52 | 258 | 5.2 | 7.0 | 0.00 | 0.16 | 0.10 | 75 | 1018.0 |
| 20260507004000 | 51 | 173 | 1.7 | 4.3 | 0.00 | 0.16 | 0.10 | 83 | 1017.9 |
| 20260507003501 | 51 | 173 | 4.3 | 4.3 | 0.00 | 0.16 | 0.10 | 81 | 1017.9 |
| 20260507003000 | 51 | 170 | 3.5 | 4.3 | 0.00 | 0.16 | 0.10 | 78 | 1017.8 |
| 20260507002501 | 51 | 169 | 3.5 | 4.3 | 0.00 | 0.16 | 0.10 | 78 | 1018.0 |
| 20260507002000 | 51 | 159 | 4.3 | 6.1 | 0.00 | 0.16 | 0.10 | 78 | 1018.0 |
| 20260507000500 | 52 | 165 | 1.7 | 6.1 | 0.01 | 0.16 | 0.10 | 77 | 1018.0 |
| 20260507000003 | 51 | 150 | 2.6 | 6.1 | 0.01 | 0.16 | 0.10 | 77 | 1018.0 |
| 20260506235000 | 52 | 163 | 5.2 | 6.1 | 0.01 | 0.16 | 0.10 | 78 | 1018.1 |
| 20260506234500 | 52 | 188 | 4.3 | 6.1 | 0.01 | 0.16 | 0.10 | 77 | 1018.1 |
| 20260506234000 | 51 | 187 | 4.3 | 5.2 | 0.01 | 0.16 | 0.10 | 76 | 1018.1 |
| 20260506233500 | 51 | 184 | 3.5 | 10.4 | 0.01 | 0.16 | 0.10 | 79 | 1018.2 |
| 20260506233000 | 50 | 178 | 5.2 | 10.4 | 0.01 | 0.16 | 0.10 | 81 | 1018.1 |
| 20260506232501 | 50 | 177 | 8.7 | 9.6 | 0.01 | 0.16 | 0.10 | 81 | 1018.0 |
| 20260506232000 | 49 | 174 | 6.1 | 7.8 | 0.01 | 0.16 | 0.10 | 81 | 1018.1 |
| 20260506231459 | 50 | 198 | 5.2 | 7.8 | 0.00 | 0.15 | 0.09 | 79 | 1018.2 |
| 20260506231001 | 50 | 196 | 5.2 | 9.6 | 0.00 | 0.15 | 0.09 | 78 | 1018.1 |
| 20260506230500 | 50 | 217 | 7.0 | 9.6 | 0.00 | 0.15 | 0.09 | 77 | 1018.2 |
| 20260506230003 | 50 | 212 | 8.7 | 10.4 | 0.00 | 0.15 | 0.09 | 75 | 1018.3 |
| 20260506225500 | 51 | 211 | 7.0 | 12.2 | 0.00 | 0.15 | 0.09 | 72 | 1018.2 |
| 20260506225000 | 52 | 207 | 9.6 | 12.2 | 0.00 | 0.15 | 0.09 | 70 | 1018.3 |
| 20260506224000 | 54 | 273 | 7.8 | 7.8 | 0.00 | 0.15 | 0.09 | 62 | 1018.1 |
| 20260506223501 | 54 | 273 | 3.5 | 5.2 | 0.00 | 0.15 | 0.09 | 60 | 1018.1 |
| 20260506223000 | 54 | 276 | 2.6 | 5.2 | 0.00 | 0.15 | 0.09 | 60 | 1018.2 |
| 20260506222500 | 54 | 266 | 1.7 | 7.8 | 0.00 | 0.15 | 0.09 | 60 | 1018.2 |
| 20260506222001 | 54 | 279 | 6.1 | 9.6 | 0.00 | 0.15 | 0.09 | 60 | 1018.3 |
| 20260506221501 | 54 | 284 | 7.0 | 9.6 | 0.00 | 0.15 | 0.09 | 59 | 1018.2 |
| 20260506221001 | 54 | 265 | 6.1 | 8.7 | 0.00 | 0.15 | 0.09 | 59 | 1018.3 |
| 20260506220501 | 54 | 259 | 5.2 | 9.6 | 0.00 | 0.15 | 0.09 | 57 | 1018.3 |
| 20260506220003 | 54 | 263 | 8.7 | 9.6 | 0.00 | 0.15 | 0.09 | 58 | 1018.3 |
| 20260506215501 | 54 | 244 | 4.3 | 9.6 | 0.00 | 0.15 | 0.09 | 57 | 1018.4 |
| 20260506215000 | 55 | 258 | 8.7 | 13.0 | 0.00 | 0.15 | 0.09 | 56 | 1018.4 |
| 20260506214500 | 55 | 247 | 7.8 | 13.9 | 0.00 | 0.15 | 0.09 | 56 | 1018.4 |
| 20260506214000 | 55 | 246 | 9.6 | 11.3 | 0.00 | 0.15 | 0.09 | 56 | 1018.4 |
| 20260506213501 | 55 | 211 | 6.1 | 8.7 | 0.00 | 0.15 | 0.09 | 56 | 1018.4 |
| 20260506213000 | 55 | 223 | 6.1 | 13.9 | 0.00 | 0.15 | 0.09 | 59 | 1018.4 |
| 20260506212501 | 55 | 217 | 7.8 | 13.9 | 0.00 | 0.15 | 0.09 | 57 | 1018.5 |
| 20260506211500 | 56 | 219 | 11.3 | 13.9 | 0.00 | 0.15 | 0.09 | 60 | 1018.5 |
| 20260506211000 | 56 | 281 | 1.7 | 9.6 | 0.00 | 0.15 | 0.09 | 54 | 1018.6 |
| 20260506210500 | 55 | 198 | 4.3 | 9.6 | 0.00 | 0.15 | 0.09 | 60 | 1018.7 |
| 20260506205500 | 57 | 236 | 7.8 | 12.2 | 0.00 | 0.15 | 0.09 | 54 | 1018.8 |
| 20260506205000 | 57 | 248 | 3.5 | 13.9 | 0.00 | 0.15 | 0.09 | 54 | 1018.8 |
| 20260506204500 | 57 | 259 | 0.9 | 13.9 | 0.00 | 0.15 | 0.09 | 52 | 1018.9 |
| 20260506204001 | 59 | 246 | 4.3 | 12.2 | 0.00 | 0.15 | 0.09 | 53 | 1018.9 |
| 20260506203501 | 55 | 281 | 7.8 | 7.8 | 0.00 | 0.15 | 0.09 | 56 | 1019.0 |
| 20260506203000 | 55 | 248 | 3.5 | 7.8 | 0.00 | 0.15 | 0.09 | 54 | 1019.1 |
| 20260506202500 | 57 | 278 | 2.6 | 7.8 | 0.00 | 0.15 | 0.09 | 48 | 1019.0 |
| 20260506202001 | 58 | 238 | 1.7 | 10.4 | 0.00 | 0.15 | 0.09 | 52 | 1019.0 |
| 20260506201500 | 57 | 301 | 1.7 | 10.4 | 0.00 | 0.15 | 0.09 | 51 | 1019.2 |
| 20260506201001 | 57 | 248 | 3.5 | 8.7 | 0.00 | 0.15 | 0.09 | 55 | 1019.1 |
| 20260506200500 | 55 | 268 | 5.2 | 8.7 | 0.00 | 0.15 | 0.09 | 57 | 1019.3 |
| 20260506200003 | 56 | 223 | 4.3 | 12.2 | 0.00 | 0.15 | 0.09 | 53 | 1019.4 |
| 20260506195500 | 56 | 236 | 3.5 | 12.2 | 0.00 | 0.15 | 0.09 | 58 | 1019.6 |
| 20260506195000 | 57 | 259 | 3.5 | 9.6 | 0.00 | 0.15 | 0.09 | 51 | 1019.5 |
| 20260506194501 | 57 | 272 | 7.0 | 7.8 | 0.00 | 0.15 | 0.09 | 51 | 1019.5 |
| 20260506193501 | 57 | 238 | 3.5 | 10.4 | 0.00 | 0.15 | 0.09 | 53 | 1019.5 |
| 20260506192500 | 54 | 241 | 2.6 | 10.4 | 0.00 | 0.15 | 0.09 | 50 | 1019.7 |
| 20260506192000 | 56 | 224 | 6.1 | 10.4 | 0.00 | 0.15 | 0.09 | 54 | 1019.7 |
| 20260506191500 | 55 | 246 | 6.1 | 7.0 | 0.00 | 0.15 | 0.09 | 55 | 1019.8 |
| 20260506191000 | 55 | 234 | 4.3 | 6.1 | 0.00 | 0.15 | 0.09 | 54 | 1019.8 |
| 20260506190003 | 55 | 208 | 3.5 | 7.8 | 0.00 | 0.15 | 0.09 | 56 | 1019.8 |
| 20260506185501 | 55 | 258 | 2.6 | 7.0 | 0.00 | 0.18 | 0.09 | 51 | 1019.8 |
| 20260506185000 | 55 | 220 | 4.3 | 10.4 | 0.00 | 0.18 | 0.09 | 53 | 1020.0 |
| 20260506184500 | 55 | 264 | 1.7 | 10.4 | 0.00 | 0.18 | 0.09 | 55 | 1020.2 |
| 20260506184000 | 53 | 235 | 2.6 | 7.0 | 0.00 | 0.18 | 0.09 | 54 | 1020.2 |
| 20260506183500 | 53 | 242 | 3.5 | 6.1 | 0.00 | 0.18 | 0.09 | 55 | 1020.3 |
| 20260506182500 | 53 | 222 | 4.3 | 7.0 | 0.00 | 0.18 | 0.09 | 56 | 1020.4 |
| 20260506182000 | 54 | 294 | 4.3 | 7.0 | 0.00 | 0.18 | 0.09 | 54 | 1020.4 |
| 20260506181500 | 53 | 215 | 0.9 | 6.1 | 0.00 | 0.18 | 0.09 | 54 | 1020.6 |
| 20260506181000 | 53 | 186 | 2.6 | 7.0 | 0.00 | 0.18 | 0.09 | 55 | 1020.7 |
| 20260506180500 | 53 | 221 | 4.3 | 8.7 | 0.00 | 0.18 | 0.09 | 55 | 1020.6 |
| 20260506175500 | 54 | 219 | 5.2 | 7.0 | 0.00 | 0.18 | 0.09 | 57 | 1020.7 |
| 20260506175001 | 53 | 216 | 3.5 | 7.0 | 0.00 | 0.18 | 0.09 | 54 | 1020.7 |
| 20260506174500 | 53 | 296 | 3.5 | 7.0 | 0.00 | 0.18 | 0.09 | 62 | 1020.7 |
| 20260506174001 | 53 | 303 | 2.6 | 8.7 | 0.00 | 0.18 | 0.09 | 56 | 1020.7 |
| 20260506173500 | 53 | 228 | 2.6 | 9.6 | 0.00 | 0.18 | 0.09 | 62 | 1020.7 |
| 20260506173000 | 53 | 233 | 1.7 | 9.6 | 0.00 | 0.18 | 0.09 | 55 | 1020.6 |
| 20260506172500 | 53 | 261 | 6.1 | 8.7 | 0.00 | 0.18 | 0.09 | 60 | 1020.6 |
| 20260506171500 | 53 | 249 | 0.9 | 6.1 | 0.00 | 0.18 | 0.09 | 57 | 1020.6 |
| 20260506171000 | 53 | 244 | 1.7 | 4.3 | 0.00 | 0.18 | 0.09 | 61 | 1020.6 |
| 20260506170500 | 52 | 205 | 1.7 | 4.3 | 0.00 | 0.18 | 0.09 | 61 | 1020.6 |
| 20260506170003 | 52 | 234 | 2.6 | 4.3 | 0.00 | 0.18 | 0.09 | 62 | 1020.6 |
| 20260506165500 | 51 | 284 | 0.0 | 6.1 | 0.00 | 0.18 | 0.09 | 63 | 1020.5 |
| 20260506165000 | 52 | 281 | 2.6 | 6.1 | 0.00 | 0.18 | 0.09 | 65 | 1020.4 |
| 20260506164500 | 51 | 296 | 1.7 | 6.1 | 0.00 | 0.18 | 0.09 | 64 | 1020.4 |
| 20260506164000 | 51 | 296 | 1.7 | 6.1 | 0.00 | 0.18 | 0.09 | 63 | 1020.4 |
| 20260506163500 | 52 | 346 | 0.9 | 6.1 | 0.00 | 0.18 | 0.09 | 68 | 1020.3 |
| 20260506163001 | 51 | 277 | 3.5 | 6.1 | 0.00 | 0.18 | 0.09 | 69 | 1020.3 |
| 20260506162501 | 51 | 309 | 3.5 | 5.2 | 0.00 | 0.18 | 0.09 | 67 | 1020.3 |
| 20260506162000 | 51 | 68 | 0.9 | 7.0 | 0.00 | 0.18 | 0.09 | 71 | 1020.4 |
| 20260506161500 | 51 | 279 | 3.5 | 7.0 | 0.00 | 0.18 | 0.09 | 76 | 1020.4 |
| 20260506161000 | 50 | 302 | 0.9 | 5.2 | 0.00 | 0.18 | 0.09 | 73 | 1020.3 |
| 20260506160501 | 49 | 5 | 2.6 | 5.2 | 0.00 | 0.18 | 0.09 | 72 | 1020.4 |
| 20260506160003 | 49 | 290 | 4.3 | 6.1 | 0.00 | 0.18 | 0.09 | 76 | 1020.3 |
| 20260506155500 | 49 | 283 | 3.5 | 4.3 | 0.00 | 0.22 | 0.09 | 72 | 1020.4 |
| 20260506155000 | 49 | 330 | 1.7 | 4.3 | 0.00 | 0.22 | 0.09 | 75 | 1020.3 |
| 20260506154500 | 49 | 273 | 0.9 | 5.2 | 0.00 | 0.22 | 0.09 | 75 | 1020.3 |
| 20260506154000 | 48 | 258 | 2.6 | 5.2 | 0.00 | 0.22 | 0.09 | 74 | 1020.3 |
| 20260506153500 | 48 | 252 | 1.7 | 5.2 | 0.00 | 0.22 | 0.09 | 77 | 1020.4 |
| 20260506152500 | 48 | 267 | 2.6 | 3.5 | 0.00 | 0.22 | 0.09 | 75 | 1020.4 |
| 20260506152000 | 48 | 309 | 0.0 | 4.3 | 0.00 | 0.22 | 0.09 | 74 | 1020.3 |
| 20260506151500 | 48 | 254 | 1.7 | 4.3 | 0.00 | 0.22 | 0.09 | 79 | 1020.3 |
| 20260506151000 | 47 | 289 | 1.7 | 2.6 | 0.00 | 0.22 | 0.09 | 76 | 1020.2 |
| 20260506150003 | 47 | 242 | 0.9 | 5.2 | 0.00 | 0.22 | 0.09 | 80 | 1020.2 |
| 20260506145000 | 47 | 244 | 1.7 | 6.1 | 0.00 | 0.23 | 0.09 | 83 | 1020.2 |
| 20260506144000 | 47 | 263 | 1.7 | 3.5 | 0.00 | 0.23 | 0.09 | 80 | 1020.3 |
| 20260506143500 | 47 | 257 | 1.7 | 3.5 | 0.00 | 0.23 | 0.09 | 83 | 1020.1 |
| 20260506143000 | 46 | 257 | 1.7 | 3.5 | 0.00 | 0.23 | 0.09 | 85 | 1020.1 |
| 20260506142500 | 46 | 265 | 1.7 | 3.5 | 0.00 | 0.23 | 0.09 | 85 | 1020.1 |
| 20260506141501 | 45 | 275 | 3.5 | 4.3 | 0.00 | 0.23 | 0.09 | 87 | 1020.0 |
| 20260506141000 | 45 | 283 | 3.5 | 5.2 | 0.00 | 0.23 | 0.09 | 89 | 1020.1 |
| 20260506140003 | 45 | 257 | 3.5 | 7.0 | 0.00 | 0.23 | 0.09 | 90 | 1020.1 |
| 20260506135500 | 45 | 320 | 1.7 | 7.0 | 0.00 | 0.23 | 0.09 | 91 | 1020.0 |
| 20260506135001 | 45 | 275 | 3.5 | 4.3 | 0.00 | 0.23 | 0.09 | 92 | 1020.0 |
| 20260506134500 | 45 | 273 | 2.6 | 3.5 | 0.00 | 0.23 | 0.09 | 92 | 1020.0 |
| 20260506134000 | 45 | 292 | 0.9 | 3.5 | 0.01 | 0.23 | 0.09 | 93 | 1020.1 |
| 20260506133500 | 45 | 291 | 0.0 | 2.6 | 0.01 | 0.23 | 0.09 | 93 | 1020.0 |
| 20260506133000 | 45 | 289 | 0.0 | 2.6 | 0.01 | 0.23 | 0.09 | 93 | 1019.8 |
| 20260506132500 | 44 | 323 | 0.0 | 2.6 | 0.01 | 0.23 | 0.09 | 93 | 1019.8 |
| 20260506132000 | 44 | 351 | 0.0 | 2.6 | 0.01 | 0.23 | 0.09 | 93 | 1019.8 |
| 20260506131501 | 44 | 327 | 0.0 | 2.6 | 0.01 | 0.23 | 0.09 | 93 | 1019.8 |
| 20260506131001 | 44 | 302 | 1.7 | 3.5 | 0.01 | 0.23 | 0.09 | 94 | 1019.7 |
| 20260506130500 | 44 | 313 | 3.5 | 3.5 | 0.01 | 0.23 | 0.09 | 94 | 1019.7 |
| 20260506130002 | 44 | 285 | 0.0 | 3.5 | 0.01 | 0.23 | 0.09 | 94 | 1019.6 |
| 20260506125459 | 44 | 355 | 1.7 | 4.3 | 0.01 | 0.23 | 0.09 | 94 | 1019.6 |
| 20260506124959 | 44 | 338 | 1.7 | 4.3 | 0.01 | 0.23 | 0.09 | 94 | 1019.5 |
| 20260506124459 | 44 | 349 | 2.6 | 4.3 | 0.00 | 0.22 | 0.08 | 94 | 1019.5 |
| 20260506123959 | 43 | 355 | 1.7 | 4.3 | 0.01 | 0.22 | 0.08 | 93 | 1019.4 |
| 20260506123459 | 43 | 355 | 2.6 | 4.3 | 0.01 | 0.22 | 0.08 | 94 | 1019.3 |
| 20260506123000 | 43 | 346 | 0.9 | 4.3 | 0.01 | 0.22 | 0.08 | 94 | 1019.2 |
| 20260506122459 | 43 | 336 | 2.6 | 3.5 | 0.01 | 0.22 | 0.08 | 94 | 1019.1 |
| 20260506121959 | 43 | 5 | 0.9 | 3.5 | 0.01 | 0.22 | 0.08 | 94 | 1019.0 |
| 20260506120959 | 43 | 348 | 0.9 | 2.6 | 0.01 | 0.22 | 0.08 | 94 | 1018.8 |
| 20260506120459 | 43 | 348 | 0.9 | 1.7 | 0.01 | 0.22 | 0.08 | 94 | 1018.7 |
| 20260506120003 | 43 | 348 | 0.0 | 1.7 | 0.01 | 0.22 | 0.08 | 94 | 1018.6 |
| 20260506115500 | 43 | 348 | 0.0 | 1.7 | 0.01 | 0.25 | 0.08 | 94 | 1018.4 |
| 20260506114500 | 43 | 348 | 0.9 | 1.7 | 0.01 | 0.25 | 0.08 | 94 | 1018.2 |